Location: Waco, TX
(31.5480°N, 97.1670°W)
Time: 23:48:10
(UTC-05:00)

ISS - Pass Details

Date: 21 September 2017
Orbit: 401 x 408 km, 51.6° (Epoch: 22 October)

Event Time Altitude Azimuth Distance (km) Brightness Sun altitude
Rises 05:36:04 0° 321° (NW) 2,336 - -22.0°
Reaches altitude 10° 05:38:13 10° 327° (NNW) 1,473 - -21.5°
Exits shadow 05:40:35 36° 360° (N) 666 -2.7 -21.0°
Maximum altitude 05:41:25 45° 42° (NE) 565 -2.8 -20.9°
Drops below altitude 10° 05:44:35 10° 117° (ESE) 1,463 -0.3 -20.2°
Sets 05:46:42 0° 124° (ESE) 2,319 0.7 -19.8°
